Weather History for Milton, FL

Change the Weather History Date:

Sunday, April 28, 2013

  Actual Average (KNSE) Record (KNSE)
Temperature  
Mean Temperature 73 °F -  
Max Temperature 81 °F 77 °F 88 °F (2012)
Min Temperature 66 °F 58 °F 50 °F (2008)
Cooling Degree Days 8    
Growing Degree Days 23 (Base 50)    
Moisture  
Dew Point 65 °F    
Average Humidity 80    
Maximum Humidity 100    
Minimum Humidity 47    
Precipitation  
Precipitation 0.00 in - - ()
Sea Level Pressure  
Sea Level Pressure 30.02 in    
Wind  
Wind Speed 3 mph (SE)    
Max Wind Speed 14 mph    
Max Gust Speed 20 mph    
Visibility 7 miles    
Events Fog    
Averages and records for this station are not official NWS values.
T = Trace of Precipitation, MM = Missing Value Source: NWS Daily Summary

Daily Weather History Graph

Daily Weather History Graph

Search for Another Location

Airport:

Trip Planner

Search our weather history database for the weather conditions in past years. The results will help you decide how hot, cold, wet, or windy it might be!

Date:

Astronomy

Apr. 28, 2013 Rise Set
Actual Time 6:06 AM CDT 7:24 PM CDT
Civil Twilight 5:41 AM CDT 7:50 PM CDT
Nautical Twilight 5:11 AM CDT 8:20 PM CDT
Astronomical Twilight 4:39 AM CDT 8:52 PM CDT
Moon 10:47 PM CDT (4/28) 8:30 AM CDT (4/28)
Length of Visible Light 14h 08m
Length of Day
13h 18m
Waning Gibbous, 88% of the Moon is Illuminated
Apr 28
Waning Gibbous
May 2
Last Quarter
May 9
New
May 17
First Quarter
May 24
Full

Hourly Weather History & Observations

Time (CDT) Temp. Heat Index Dew Point Humidity Pressure Visibility Wind Dir Wind Speed Gust Speed Precip Events Conditions
12:11 AM 69.8 °F - 66.2 °F 88% 30.12 in 8.0 mi Calm Calm - N/A   Mostly Cloudy
12:18 AM 69.8 °F - 66.2 °F 88% 30.12 in 10.0 mi Calm Calm - N/A   Mostly Cloudy
12:31 AM 69.8 °F - 66.2 °F 88% 30.11 in 10.0 mi Calm Calm - N/A   Scattered Clouds
12:56 AM 70.0 °F - 66.9 °F 90% 30.06 in 10.0 mi ESE 3.5 mph - N/A   Overcast
1:56 AM 68.0 °F - 66.0 °F 93% 30.03 in 6.0 mi SSE 6.9 mph - N/A   Scattered Clouds
2:21 AM 69.8 °F - 66.2 °F 88% 30.07 in 6.0 mi SE 5.8 mph - N/A   Overcast
2:43 AM 69.8 °F - 66.2 °F 88% 30.05 in 8.0 mi SE 6.9 mph - N/A   Overcast
2:54 AM 69.8 °F - 66.2 °F 88% 30.05 in 7.0 mi Calm Calm - N/A   Overcast
2:56 AM 69.1 °F - 66.9 °F 93% 30.00 in 7.0 mi Calm Calm - N/A   Overcast
3:10 AM 68.0 °F - 66.2 °F 94% 30.05 in 4.0 mi Calm Calm - N/A   Overcast
3:17 AM 68.0 °F - 66.2 °F 94% 30.05 in 1.8 mi Calm Calm - N/A   Overcast
3:29 AM 68.0 °F - 66.2 °F 94% 30.06 in 1.8 mi Calm Calm - N/A   Overcast
3:33 AM 66.2 °F - 64.4 °F 94% 30.06 in 2.0 mi Calm Calm - N/A   Overcast
3:43 AM 68.0 °F - 66.2 °F 94% 30.06 in 2.0 mi Calm Calm - N/A   Overcast
3:56 AM 68.0 °F - 66.0 °F 93% 30.02 in 2.5 mi Calm Calm - N/A   Overcast
4:10 AM 69.8 °F - 66.2 °F 88% 30.06 in 1.5 mi Calm Calm - N/A   Overcast
4:25 AM 69.8 °F - 66.2 °F 88% 30.07 in 0.8 mi Calm Calm - N/A   Overcast
4:56 AM 68.0 °F - 66.9 °F 96% 30.03 in 0.5 mi Calm Calm - N/A Fog Fog
5:39 AM 66.2 °F - 66.2 °F 100% 30.06 in 0.2 mi SE 4.6 mph - N/A Fog Fog
5:56 AM 66.9 °F - 64.9 °F 93% 30.02 in 0.5 mi SSE 3.5 mph - N/A Fog Fog
6:56 AM 69.1 °F - 66.9 °F 93% 30.03 in 0.2 mi East 3.5 mph - N/A Fog Fog
7:43 AM 69.8 °F - 68.0 °F 94% 30.08 in 1.5 mi SE 5.8 mph - N/A   Overcast
7:49 AM 69.8 °F - 69.8 °F 100% 30.08 in 3.0 mi SE 5.8 mph - N/A   Overcast
7:56 AM 70.0 °F - 69.1 °F 97% 30.04 in 5.0 mi SSE 3.5 mph - N/A   Overcast
8:23 AM 71.6 °F - 69.8 °F 94% 30.07 in 10.0 mi SSE 8.1 mph - N/A   Mostly Cloudy
8:35 AM 73.4 °F - 68.0 °F 83% 30.07 in 10.0 mi SSE 9.2 mph - N/A   Mostly Cloudy
8:56 AM 73.9 °F - 66.0 °F 76% 30.03 in 10.0 mi South 9.2 mph - N/A   Mostly Cloudy
9:40 AM 77.0 °F - 64.4 °F 65% 30.06 in 10.0 mi South 9.2 mph - N/A   Partly Cloudy
9:56 AM 78.1 °F - 63.0 °F 60% 30.02 in 10.0 mi SSW 9.2 mph 16.1 mph N/A   Partly Cloudy
10:56 AM 80.1 °F 80.6 °F 57.9 °F 47% 30.02 in 10.0 mi South 10.4 mph 16.1 mph N/A   Clear
11:56 AM 78.1 °F - 59.0 °F 52% 30.01 in 10.0 mi South 11.5 mph - N/A   Mostly Cloudy
12:56 PM 80.1 °F 81.2 °F 62.1 °F 54% 30.00 in 10.0 mi Variable 6.9 mph 18.4 mph N/A   Partly Cloudy
1:56 PM 80.1 °F 80.9 °F 60.1 °F 50% 29.99 in 10.0 mi SW 9.2 mph 17.3 mph N/A   Partly Cloudy
2:56 PM 80.1 °F 80.9 °F 60.1 °F 50% 29.96 in 10.0 mi South 13.8 mph 19.6 mph N/A   Clear
3:56 PM 78.1 °F - 63.0 °F 60% 29.94 in 10.0 mi Variable 6.9 mph - N/A   Clear
4:56 PM 79.0 °F - 63.0 °F 58% 29.93 in 10.0 mi SW 5.8 mph - N/A   Clear
5:56 PM 75.9 °F - 64.9 °F 69% 29.93 in 10.0 mi SSE 9.2 mph - N/A   Mostly Cloudy
6:56 PM 73.9 °F - 64.0 °F 71% 29.94 in 10.0 mi South 6.9 mph - N/A   Overcast
7:56 PM 72.0 °F - 64.0 °F 76% 29.94 in 10.0 mi NW 4.6 mph - N/A   Overcast
8:27 PM 71.6 °F - 60.8 °F 69% 29.98 in 10.0 mi North 9.2 mph - N/A   Overcast
8:56 PM 71.1 °F - 60.1 °F 68% 29.94 in 10.0 mi NNW 5.8 mph - N/A   Overcast
9:56 PM 70.0 °F - 60.1 °F 71% 29.96 in 10.0 mi NNE 6.9 mph - N/A   Mostly Cloudy
10:33 PM 69.8 °F - 60.8 °F 73% 30.00 in 10.0 mi NE 5.8 mph - N/A   Overcast
10:49 PM 69.8 °F - 60.8 °F 73% 30.00 in 10.0 mi East 4.6 mph - N/A   Mostly Cloudy
10:56 PM 69.1 °F - 60.1 °F 73% 29.95 in 10.0 mi East 3.5 mph - N/A   Scattered Clouds
11:56 PM 69.1 °F - 60.1 °F 73% 29.94 in 10.0 mi ESE 5.8 mph - N/A   Partly Cloudy